Terminal Aerodrome Forecast
Issued by NWS

Home | Current Version | Previous Version | Text Only | Print | Product List | Glossary On
Versions: 1 2 3 4 5 6 7 8 9 10 11 12 13 14 15 16 17 18 19 20 21 22 23 24 25
000
FTUS45 KREV 200500
TAFRNO
TAF
KRNO 200523Z 2006/2106 31009KT P6SM FEW120 SCT200
     FM200700 VRB03KT P6SM FEW120 SCT200
     FM202200 28010G17KT P6SM SCT120
     FM210500 31008KT P6SM SCT120=

USA.gov is the U.S. government's official web portal to all federal, state and local government web resources and services.